Content
SEND FEEDBACK

Daily
Averages
Monthly
Summary
United States of America

AGNEW, NEBRASKA


Home > North America > United States > Nebraska
Elevation: 384 meters     Latitude: 41 01N     Longitude: 096 48W

WEATHER
 
SELECT A DAY
Number of Records: 207,623;   Date Range: 1/1/95 - 12/18/14
 
SHARE

PRINT THIS DATA

[ ← Previous Day ]
WEATHER ALMANAC - 5 FEBRUARY, 2013
[ Next Day → ]
[ °F ]   °C
Weather ElementAverageHighLow
Temperature2.9 °C11.1 °C (1:54 pm)-3.9 °C (3:54 am)
Dewpoint-3.4 °C-1.1 °C (10:54 am)-5 °C (3:54 am)
Humidity67.5 %92 % (3:54 am)35 % (3:54 pm)
Barometer1016.3 hPa1019.3 hPa (10:54 pm)1012.9 hPa (2:54 am)
Wind Speed10.9 km/h29.6 km/h (10:54 am)
Wind Gust31.5 km/h (3:54 pm)
Weather ElementAverage
Visibility15.1 km
Wind DirectionSSW (200 °)

Weather ElementTotal
Precipitation---
Heating Degree Days14.7 (Base 18.3)
Averaged from 23 records on 5 February, 2013
WEATHER CONDITIONS BREAKOUT
WIND DIRECTION BREAKOUT
WEATHER BY HOUR - 5 FEBRUARY, 2013
[ °F ]   °C
Local TimeTemperatureDewpointHumidityBarometerVisibilityWind DirectionWind SpeedGust SpeedPrecipitationEventsConditions
1:54 AM-2.2 °C-3.9 °C88 %1013.5 hPa12.9 kmSSW (210°)7.4 km/hOvercast
2:54 AM-2.2 °C-3.9 °C88 %1012.9 hPa12.9 kmSSW (200°)11.1 km/hMostly Cloudy
3:54 AM-3.9 °C-5 °C92 %1012.9 hPa11.3 kmSouth (190°)11.1 km/hClear
4:54 AM-2.2 °C-3.9 °C88 %1012.9 hPa12.9 kmSW (220°)7.4 km/hMostly Cloudy
5:54 AM-2.2 °C-3.9 °C88 %1012.9 hPa12.9 kmCalmOvercast
6:54 AM-2.2 °C-3.3 °C92 %1013.5 hPa14.5 kmCalmOvercast
7:54 AM-2.2 °C-3.3 °C92 %1013.9 hPa14.5 kmCalmMostly Cloudy
8:54 AM3.3 °C-1.7 °C70 %1014.9 hPa16.1 kmWest (280°)7.4 km/hClear
9:54 AM7.2 °C-1.7 °C53 %1015.6 hPa16.1 kmNW (310°)16.7 km/hClear
10:54 AM8.3 °C-1.1 °C52 %1016.6 hPa16.1 kmNNW (330°)29.6 km/hClear
11:54 AM9.4 °C-1.1 °C48 %1016.9 hPa16.1 kmNNW (330°)20.4 km/hClear
12:54 PM10.6 °C-2.2 °C41 %1016.6 hPa16.1 kmNW (320°)22.2 km/hClear
1:54 PM11.1 °C-2.8 °C38 %1016.9 hPa16.1 kmNNW (340°)25.9 km/hClear
2:54 PM11.1 °C-3.3 °C37 %1016.6 hPa16.1 kmNNW (330°)27.8 km/hClear
3:54 PM11.1 °C-3.9 °C35 %1017.3 hPa16.1 kmNNW (340°)24.1 km/h31.5 km/hClear
4:54 PM10 °C-4.4 °C36 %1017.3 hPa16.1 kmNNW (340°)13 km/hClear
5:54 PM5 °C-3.3 °C55 %1017.6 hPa16.1 kmCalmClear
6:54 PM0.6 °C-4.4 °C70 %1018.3 hPa16.1 kmNorth (350°)7.4 km/hClear
7:54 PM0.6 °C-3.3 °C75 %1019 hPa16.1 kmNorth (350°)7.4 km/hClear
8:54 PM-2.2 °C-5 °C81 %1019 hPa16.1 kmNorth (10°)7.4 km/hClear
9:54 PM-1.1 °C-4.4 °C79 %1019 hPa16.1 kmCalmClear
10:54 PM-0.6 °C-3.9 °C79 %1019.3 hPa16.1 kmSSE (150°)5.6 km/hPartly Cloudy
11:54 PM0 °C-3.9 °C75 %1019 hPa16.1 kmCalmClear
Hourly data recorded from KLNK, located 0 kilometers away from Agnew, Nebraska







STORIES FROM OUR PARTNERS